{"data":{"norad_id":66534,"intl_designator":"2025-265U","name":"STARLINK-35976","alt_names":[],"object_type":"PAYLOAD","status":"ACTIVE","operator":null,"country":"US","launch_date":"2025-11-19","launch_site_code":"AFETR","launch_vehicle":null,"mission":null,"orbit_class":"UNKNOWN","rcs_meters":null,"size_class":null,"mass_kg":null,"dimensions":null,"purposes":["comms"],"wikipedia_slug":null,"has_3d_model":false,"image_url":null,"decayed_at":null,"tle_current":{"epoch":"2026-09-20T01:07:47.184096Z","epoch_age_seconds":128349,"freshness":"FRESH","line1":"1 66534U 25265U   26263.04707389  .00014769  00000+0  54428-3 0  9993","line2":"2 66534  43.0014 260.6696 0001394 248.9966 111.0737 15.27631825 46835","mean_motion":15.27631825,"eccentricity":0.0001394,"inclination_deg":43.0014,"raan_deg":260.6696,"arg_perigee_deg":248.9966,"mean_anomaly_deg":111.0737,"bstar":0.00054428,"rev_number":4683,"period_min":94.263550708627,"perigee_km":481.93749002294,"apogee_km":483.85034544281,"semimajor_km":6861.0309177329,"source":"CELESTRAK","updated_at":"2026-09-21T09:00:35.967011Z"}}}